#timestamp,LO_Frequency,Hit,StdDev 
1502366415.3,286047000.6,N,3.1
1502366435.1,286047000.5,N,3.1
1502366455.8,286047000.5,N,3.0
1502366475.7,286047000.0,N,2.9
1502366495.5,286047000.0,N,2.9
1502366515.4,286047002.7,N,2.9
1502366535.2,286047002.2,N,2.9
1502366555.0,286047002.6,N,2.9
1502366555.9,286047002.6,N,2.8
1502366575.8,286047002.0,N,2.8
1502366595.6,286047002.5,N,2.8
1502366615.5,286047002.6,N,2.8
1502366635.3,286047002.6,N,2.8
1502366655.1,286047002.6,N,2.7
1502366675.9,286046999.8,N,1.7
1502366695.7,286047002.6,N,1.7
1502366715.6,286047001.5,N,1.6
1502366735.4,286047001.7,N,1.5
1502366755.2,286047001.9,N,1.5
1502366775.1,286047004.3,N,1.6
1502366776.0,286047004.3,N,1.7
1502366795.8,286047001.8,N,1.6
1502366815.7,286047001.6,N,1.5
1502366835.5,286047002.2,N,1.5
1502366855.3,286047001.9,N,1.4
1502366875.2,286682707.6,Y,0.0
1502366895.0,286047001.0,P,0.2
1502366895.9,286047001.0,P,0.2
1502366915.8,286047002.6,P,0.7
1502366935.6,286047001.9,N,0.6
1502366955.4,286047000.1,N,0.8
1502366975.3,286047000.1,N,0.8
1502366995.1,286047001.5,N,0.8
1502367015.9,286047001.9,N,0.8
1502367035.7,286047001.4,N,0.7
1502367055.5,286047003.2,Y,0.0
1502367075.4,286047002.1,P,0.4
1502367095.2,286047002.4,P,0.5
1502367115.1,286047000.1,N,0.9
1502367116.0,286047000.1,N,1.0
1502367135.8,286047000.3,N,0.9
1502367155.6,286047002.7,N,1.0
1502367175.5,286047002.3,N,1.0
1502367195.3,286047002.2,N,1.0
1502367215.1,286047002.6,N,1.0
1502367235.9,286047000.6,N,1.0
1502367255.7,286047000.3,N,1.0
1502367275.6,286046998.3,N,1.3
1502367295.4,286046998.3,N,1.4
1502367315.2,286046998.3,N,1.5
1502367335.1,286046998.5,N,1.6
1502367336.0,286046998.5,N,1.6
1502367355.8,286047000.6,N,1.6
1502367375.7,286047000.9,N,1.5
1502367395.5,286047000.1,N,1.5
1502367415.3,286047002.3,N,1.5
1502367435.2,286047002.7,N,1.5
1502367455.0,286047002.7,N,1.6
1502367455.9,286047002.7,N,1.6
1502367475.8,286047002.6,N,1.6
1502367495.6,286046999.7,N,1.6
1502367515.4,286047000.3,N,1.5
1502367535.3,286047000.0,N,1.5
1502367555.1,286047002.3,N,1.5
1502367575.9,286047002.2,N,1.5
1502367595.7,286047001.9,N,1.5
1502367615.5,286047002.5,N,1.5
1502367635.4,286047002.7,N,1.5
1502367655.2,286047000.2,N,1.5
1502367675.1,286047002.1,N,1.5
1502367676.0,286047002.1,N,1.6
1502367695.8,286047003.9,N,1.6
1502367715.6,286047004.0,N,1.7
1502367735.5,286047004.3,N,1.8
1502367755.3,286047004.4,N,1.8
1502367775.2,286047002.1,N,1.8
1502367795.9,286047001.9,N,1.8
1502367815.7,286047002.4,N,1.7
1502367835.6,286047002.1,N,1.6
1502367855.4,286047002.4,N,1.5
1502367875.2,286047002.7,N,1.4
1502367895.1,286046999.8,N,1.3
1502367896.0,286046999.8,N,1.3
1502367915.8,286047002.6,N,1.3
1502367935.7,286047001.5,N,1.3
1502367955.5,286047002.4,N,1.3
1502367975.3,286046999.7,N,1.3
1502367995.2,286046999.7,N,1.4
1502368015.0,286046999.8,N,1.4
1502368015.9,286046999.8,N,1.5
1502368035.8,286047002.8,N,1.4
1502368055.6,286046999.9,N,1.4
1502368075.4,286047002.3,N,1.4
1502368095.3,286047002.4,N,1.4
1502368115.1,286047002.2,N,1.4
1502368135.9,286047001.3,N,1.4
1502368155.7,286047001.4,N,1.4
1502368175.5,286047001.6,N,1.4
1502368195.4,286047001.7,N,1.4
1502368215.2,286047001.8,N,1.4
1502368235.0,286047001.8,N,1.4
1502368235.9,286047001.8,N,1.3
1502368255.8,286047003.8,N,1.3
1502368275.6,286047003.8,N,1.3
1502368295.5,286047001.3,N,1.2
1502368315.3,286047003.5,N,1.2
1502368335.1,286047005.9,Y,0.0
1502368355.9,286047003.9,P,1.1
1502368375.7,286047001.4,N,1.1
1502368395.6,286047001.3,N,1.1
1502368415.4,286047002.1,N,1.0
1502368435.2,286047002.0,N,0.9
1502368455.1,286047001.3,N,0.8
1502368456.0,286047001.3,N,0.8
1502368475.8,286047002.5,N,0.8
1502368495.7,286047002.6,Y,0.0
1502368515.5,286047000.5,P,0.7
1502368535.3,286047000.4,N,0.7
1502368555.2,286047000.3,N,0.7
1502368575.0,286047001.0,N,0.6
1502368575.9,286047001.0,N,0.6
1502368595.8,286047000.5,N,0.5
1502368615.6,286047002.2,Y,0.0
1502368635.4,286046999.8,P,0.5
1502368655.3,286047002.7,P,1.2
1502368675.1,286047000.2,N,1.1
1502368695.9,286046999.9,N,1.1
1502368715.7,286047000.2,N,1.0
1502368735.5,286047000.9,N,0.9
1502368755.4,286047000.9,N,0.9
1502368775.2,286047000.7,N,0.8
1502368795.1,286047000.9,N,0.8
1502368796.0,286047000.9,N,0.7
1502368815.8,286047000.6,N,0.7
1502368835.6,286047000.4,N,0.7
1502368855.5,286047001.0,N,0.7
1502368875.3,286046998.5,N,0.9
1502368895.2,286047000.8,N,0.8
1502368915.9,286046998.1,N,1.0
1502368935.7,286046998.1,N,1.1
1502368955.6,286047000.4,N,1.1
1502368975.4,286046999.7,N,1.1
1502368995.3,286047000.4,N,1.0
1502369015.1,286047000.7,N,1.0
1502369016.0,286047000.7,N,1.0
1502369035.8,286047000.4,N,1.0
1502369055.7,286047001.0,N,1.0
1502369075.5,286047011.9,Y,0.0
1502369095.4,286047001.1,P,0.4
1502369115.2,286046998.5,P,1.1
1502369135.0,286047000.8,N,1.0
1502369135.9,286047000.8,N,0.9
1502369155.8,286047001.2,N,0.9
1502369175.6,286047001.2,N,0.9
1502369195.5,286047001.0,N,0.8
1502369215.3,286046998.2,N,1.1
1502369235.1,286047000.2,N,1.0
1502369255.9,286047000.4,N,1.0
1502369275.7,286047001.1,N,1.0
1502369295.6,286047001.1,N,1.0
1502369315.4,286047000.0,N,0.9
1502369335.2,286047000.2,N,0.9
1502369355.1,286047001.1,N,0.9
1502369356.0,286047001.1,N,0.9
1502369375.8,286047000.5,N,0.8
1502369395.7,286047000.5,N,0.8
1502369415.5,286047000.0,N,0.8
1502369435.3,286047000.3,N,0.8
1502369455.2,286047000.0,N,0.8
1502369475.0,286047000.2,N,0.8
1502369475.9,286047000.2,N,0.8
1502369495.7,286047000.0,N,0.7
1502369515.6,286047000.1,N,0.7
1502369535.4,286047000.1,N,0.7
1502369555.3,286046999.8,N,0.7
1502369575.1,286047000.2,N,0.7
1502369595.8,286047000.4,N,0.7
1502369615.7,286047000.6,N,0.7
1502369635.5,286047000.6,N,0.7
1502369655.4,286046999.9,N,0.6
1502369675.2,286047000.1,N,0.6
1502369695.0,286047001.2,N,0.6
1502369695.9,286047001.2,N,0.6
1502369715.8,286047000.6,N,0.6
1502369735.6,286047000.5,N,0.6
1502369755.5,286047001.1,N,0.4
1502369775.3,286047000.5,N,0.4
1502369795.1,286047000.1,N,0.4
1502369815.9,286046999.8,N,0.4
1502369835.7,286047002.5,Y,0.0
1502369855.6,286046999.7,P,0.4
1502369875.4,286046999.7,N,0.3
1502369895.2,286047002.6,P,1.2
1502369915.1,286046999.7,N,1.1
1502369916.0,286046999.7,N,1.1
1502369935.8,286046999.7,N,1.0
1502369955.7,286047001.9,N,1.1
1502369975.5,286047002.6,N,1.2
1502369995.3,286047002.1,N,1.2
